Location: Atbuku
(36.4936°N, 30.4362°E)
Time: 09:54:53
(UTC+00:00)

Cosmos 1607 - Pass Details

Date: 23 March 2026
Orbit: 919 x 983 km, 65.0° (Epoch: 20 April)

Event Time Altitude Azimuth Distance (km) Brightness Sun altitude
Rises 16:53:21 0° 310° (NW) 3,661 8.1 -9.0°
Reaches altitude 10° 16:57:00 10° 290° (WNW) 2,719 7.9 -9.7°
Maximum altitude 17:00:35 16° 255° (WSW) 2,327 7.0 -10.4°
Drops below altitude 10° 17:04:11 10° 220° (SW) 2,723 6.8 -11.1°
Sets 17:07:51 0° 200° (SSW) 3,669 7.1 -11.9°
